EXALTA-1 (42734 NORAD) Tracking and Keplerian Element Data

This shows tracking and keplerian element data for the satellite.

Feedback or suggestion? Click here.




ElementValue
Catalog42734
NameEXALTA-1
Epoch Orbit8423
Epoch Day318.24538221
Epoch Year2018
RAAN286.4142
Inclination51.6055
Eccentricity0.0002642
Argument of Perigee166.4742
Mean Anonmoly193.6358
Mean Motion16.4539046
Decay Rate0.12474274
L11 42734U 98067MP 18318.24538221 .12474274 12505-4 35882-3 0 9995
L22 42734 51.6055 286.4142 0002642 166.4742 193.6358 16.45390460 84235

Live tracking and technical data element details for EXALTA-1 (NORAD 42734). EXALTA-1 can be tracked NOW for your location showing map with azimuth and elevation plus other details from your city location.

Track the satellite on the map from your city or location and see movement details for azimuth, elevation, latitude, longitude, range, height, and movement on the map or in text.







IsCatalogInMostPopularTable: catalog: 42734, numindb: 173
Update: records affected: 1



GetName: 42734 EXALTA-1

Hit Count: updated at: Fri, 16 Nov 2018 09:17:24 GMT